Location: Calvary Church
(37.6695°N, 89.7723°W)
Time: 13:54:38
(UTC+00:00)

Daily predictions for brighter satellites

Satellite Brightness Start Highest point End
(mag) Time Altitude Azimuth Time Altitude Azimuth Time Altitude Azimuth
Meteor PRIRODA 3.6 12:02:24 10° N 12:05:58 61° WNW 12:09:33 10° SSW
Cosmos 1092 Rocket 4.1 12:00:05 10° S 12:06:20 82° E 12:12:39 10° N
CZ-4B R/B 2.5 12:03:17 10° N 12:06:50 69° WNW 12:10:26 10° SSW
Cosmos 1805 Rocket 3.7 12:04:21 10° S 12:08:44 79° E 12:13:07 10° N
H-2A R/B 2.5 12:05:16 10° SSE 12:09:27 65° ENE 12:13:47 10° N
SMAP 3.5 12:06:41 10° NNE 12:11:20 68° ESE 12:15:57 10° S
SL-27 R/B 2.8 12:09:16 10° NNW 12:12:41 44° WSW 12:16:01 10° S
NOAA 11 4.4 12:08:51 10° N 12:14:07 49° WNW 12:19:22 10° SW
Cosmos 1340 Rocket 3.1 12:11:06 10° SSW 12:14:52 43° WNW 12:18:41 10° N
Cosmos 1515 3.8 12:11:53 10° N 12:15:41 82° E 12:19:29 10° S
CZ-2C R/B 3.1 12:13:55 10° N 12:18:44 54° WNW 12:23:47 10° SSW
SL-8 R/B 3.8 12:16:55 11° WNW 12:21:35 67° SW 12:26:17 10° SE
ATLAS 5 CENTAUR R/B 2.5 12:22:06 10° W 12:25:10 22° NW 12:28:29 10° N
H-2A R/B 3.3 12:20:39 10° NNE 12:25:22 45° E 12:30:05 10° S
Cosmos 1666 3.9 12:26:53 10° SSE 12:30:31 46° E 12:34:08 10° NNE
Okean O Rocket 4.2 12:26:55 10° NE 12:30:35 25° E 12:34:11 10° SSE
NOSS 2 (A) 3.9 12:28:51 10° NNW 12:31:26 87° WSW 12:33:47 10° SSE
USA 32 4.1 12:28:26 10° NNW 12:33:37 62° W 12:38:46 10° S
Meteor 1-27 Rocket 4.2 12:28:40 10° NNW 12:33:57 41° W 12:39:19 10° SSW
CZ-4B R/B 1.9 12:30:52 10° SSE 12:34:08 60° ENE 12:37:23 10° N
NOAA 12 4.1 22:57:30 10° SSE 23:02:47 72° ENE 23:08:05 10° N
Cosmos 1697 Rocket 2.7 22:58:31 10° NNW 23:04:08 72° ENE 23:09:44 10° SSE
Cosmos 1092 Rocket 4.1 22:58:07 10° N 23:04:25 62° E 23:10:39 10° SSE
BREEZE-M R/B 4.2 23:03:02 10° WNW 23:06:37 53° SW 23:15:07 10° SE
Cosmos 1898 Rocket 3.5 23:04:08 10° NNW 23:09:24 89° ENE 23:14:35 10° SSE
Cosmos 1980 Rocket 2.6 23:04:10 10° N 23:09:29 40° ENE 23:14:42 10° SE
SMAP 3.2 23:07:46 10° SSE 23:12:17 54° ENE 23:16:50 10° N
GPS 2-04 Rocket1 3.4 23:09:31 10° W 23:13:33 54° S 23:17:34 10° ESE
Cosmos 1602 3.7 23:10:02 10° N 23:13:53 71° E 23:17:45 10° SSE
CORIOLIS 4.3 23:09:46 10° SSE 23:14:59 53° ENE 23:20:15 10° N
FengYun 1-2 T 4.2 23:10:37 10° SSE 23:16:12 78° ENE 23:21:45 10° N
Cosmos 1743 Rocket 4.1 23:12:42 10° NNW 23:16:59 64° W 23:21:16 10° S
Cosmos 2369 3.8 23:11:21 10° NNW 23:17:02 59° ENE 23:22:38 10° SE
ISS -2.5 23:14:28 10° NNW 23:17:22 25° NNE 23:20:15 10° E
CZ-4C R/B 3.4 23:13:03 10° NNW 23:20:00 41° NE 23:27:54 10° ESE
Meteor 2-21 4.4 23:14:33 10° N 23:20:34 62° E 23:26:31 10° SSE
Cosmos 2082 Rocket 2.4 23:16:35 10° SSW 23:22:17 81° WNW 23:27:58 10° NNE
Cosmos 1939 Rocket 2.9 23:19:25 10° SSE 23:23:32 82° ENE 23:27:37 10° N
SL-16 R/B 3.7 23:20:36 10° NNE 23:23:48 15° NE 23:27:00 10° E
Cosmos 2279 Rocket 4.1 23:18:51 10° SSE 23:24:49 52° E 23:30:49 10° NNE
Okean O Rocket 3.0 23:22:05 10° ESE 23:25:09 19° ENE 23:28:13 10° NNE
Cosmos 1328 Rocket 4.2 23:21:33 10° SSE 23:25:33 34° E 23:29:34 10° NNE
Cosmos 1627 Rocket 4.4 23:21:23 10° N 23:27:33 81° E 23:33:39 10° S
Cosmos 1666 Rocket 4.0 23:24:10 10° N 23:28:21 39° E 23:32:27 10° SSE
ARGOS 4.0 23:26:33 10° ESE 23:30:59 27° ENE 23:35:25 10° NNE
Cosmos 44 Rocket 4.5 23:27:35 10° N 23:31:21 22° NE 23:34:45 11° E
Cosmos 1500 3.0 23:28:45 10° N 23:32:29 75° E 23:36:11 10° S
Cosmos 2208 Rocket 4.2 23:27:20 10° S 23:32:35 58° ESE 23:37:55 10° NNE
Cosmos 841 Rocket 4.2 23:29:05 10° SSW 23:34:07 53° WNW 23:39:10 10° N
Cosmos 1782 3.5 23:32:14 10° SSW 23:36:09 55° W 23:40:05 10° N
CZ-4B DEB 4.2 23:30:41 10° SSE 23:36:09 70° ENE 23:41:37 10° N
CZ-2D R/B 3.4 23:32:52 10° SSE 23:36:34 49° ENE 23:40:16 10° N
Meteor 1-14 Rocket 4.4 23:31:15 10° N 23:37:02 55° ENE 23:42:51 10° SSE
CZ-2C R/B 4.3 23:32:57 10° S 23:37:36 42° W 23:42:09 10° NNW
MOS 1-B 4.5 23:32:13 10° SE 23:37:46 52° ENE 23:43:22 10° N
Cosmos 2278 3.8 23:34:37 10° NNW 23:40:11 51° ENE 23:45:40 10° SE
ATLAS CENTAUR R/B 4.4 23:31:31 10° WSW 23:40:50 32° NW 23:45:12 10° NNE
H-2A R/B 2.1 23:35:57 10° SSE 23:40:57 53° ENE 23:45:53 10° N
Meteor 2-14 Rocket 4.5 23:35:25 10° N 23:41:31 87° W 23:47:35 10° S
Cosmos 1634 Rocket 4.5 23:38:34 10° SSW 23:44:50 66° W 23:51:09 10° N
SKYMED 2 3.8 23:41:12 10° NNE 23:45:24 46° E 23:49:34 10° S
Cosmos 1937 Rocket 4.2 23:40:29 10° NNW 23:45:43 59° WSW 23:50:54 10° S
USA 267 4.2 23:42:00 10° NNE 23:48:00 40° NNW 23:53:59 10° W
Sich 1 3.7 23:44:28 10° NNW 23:48:42 59° W 23:52:57 10° S
Cosmos 372 Rocket 4.0 23:44:25 10° NNW 23:49:42 88° WSW 23:54:56 10° SSE
Cosmos 1900 4.5 23:45:33 10° SW 23:50:24 74° WNW 23:55:10 11° NNE
Cosmos 2026 Rocket 4.4 23:45:28 10° NNW 23:51:31 66° W 23:57:29 10° S
Cosmos 1125 Rocket 4.4 23:48:02 10° N 23:52:25 26° ENE 23:56:48 10° ESE
deb Chang Zheng 4 3.8 23:51:19 10° SE 23:55:23 43° ENE 23:59:29 10° N
APEX 3.2 23:52:17 10° S 23:56:22 54° ESE 23:58:03 27° NE
